Weather History for KPVD - April, 2014

Change the Weather History Date:

Friday, April 18, 2014

  Actual Average Record
Temperature  
Mean Temperature 40 °F 50 °F  
Max Temperature 50 °F 60 °F 86 °F (1976)
Min Temperature 30 °F 41 °F 27 °F (1948)
Degree Days  
Heating Degree Days 25 15  
Month to date heating degree days 297 323  
Since 1 July heating degree days 5523 5194  
Cooling Degree Days 0 0  
Month to date cooling degree days 0 0  
Year to date cooling degree days 0 0  
Moisture  
Dew Point 29 °F    
Average Humidity 63    
Maximum Humidity 79    
Minimum Humidity 46    
Precipitation  
Precipitation 0.00 in 0.14 in 1.05 in (1939)
Month to date precipitation 3.38 2.79  
Year to date precipitation 18.76 14.95  
Snow  
Snow 0.00 in 0.00 in T in (2001)
Month to date snowfall 0.3 0.5  
Since 1 July snowfall 43.6 33.7  
Snow Depth 0.00 in    
Sea Level Pressure  
Sea Level Pressure 30.46 in    
Wind  
Wind Speed 7 mph (NE)    
Max Wind Speed 14 mph    
Max Gust Speed 18 mph    
Visibility 10 miles    
Events      
T = Trace of Precipitation, MM = Missing Value Source: NWS Daily Summary

Daily Weather History Graph

Daily Weather History Graph

Search for Another Location

Airport or City:

Trip Planner

Search our weather history database for the weather conditions in past years. The results will help you decide how hot, cold, wet, or windy it might be!

Date:

Astronomy

Apr. 18, 2014 Rise Set
Actual Time 6:01 AM EDT 7:29 PM EDT
Civil Twilight 5:31 AM EDT 7:58 PM EDT
Nautical Twilight 4:56 AM EDT 8:34 PM EDT
Astronomical Twilight 4:19 AM EDT 9:11 PM EDT
Moon 11:14 PM EDT (4/18) 8:18 AM EDT (4/18)
Length of Visible Light 14h 26m
Length of Day
13h 28m
Waning Gibbous, 87% of the Moon is Illuminated
Apr 18
Waning Gibbous
Apr 22
Last Quarter
Apr 29
New
May 6
First Quarter
May 14
Full

Hourly Weather History & Observations

Time (EDT) Temp. Windchill Dew Point Humidity Pressure Visibility Wind Dir Wind Speed Gust Speed Precip Events Conditions
12:51 AM 32.0 °F 24.8 °F 25.0 °F 75% 30.63 in 10.0 mi NE 8.1 mph - N/A   Clear
1:51 AM 32.0 °F 24.8 °F 25.0 °F 75% 30.60 in 10.0 mi NNE 8.1 mph - N/A   Clear
2:51 AM 32.0 °F 24.2 °F 26.1 °F 79% 30.60 in 10.0 mi North 9.2 mph - N/A   Clear
3:51 AM 32.0 °F 25.6 °F 26.1 °F 79% 30.60 in 10.0 mi North 6.9 mph - N/A   Clear
4:51 AM 30.9 °F 24.3 °F 25.0 °F 79% 30.58 in 10.0 mi North 6.9 mph - N/A   Clear
5:51 AM 30.0 °F 22.4 °F 25.0 °F 82% 30.54 in 10.0 mi NNE 8.1 mph - N/A   Partly Cloudy
6:21 AM 32.0 °F 24.2 °F 26.1 °F 79% 30.52 in 10.0 mi NNE 9.2 mph - N/A   Mostly Cloudy
6:51 AM 33.1 °F 26.1 °F 27.0 °F 78% 30.53 in 10.0 mi NNE 8.1 mph - N/A   Mostly Cloudy
7:51 AM 36.0 °F 29.6 °F 28.0 °F 73% 30.53 in 10.0 mi NNE 8.1 mph - N/A   Overcast
8:51 AM 37.9 °F 32.1 °F 28.9 °F 70% 30.54 in 10.0 mi North 8.1 mph - N/A   Overcast
9:51 AM 39.9 °F 34.5 °F 28.9 °F 65% 30.56 in 10.0 mi NE 8.1 mph - N/A   Overcast
10:51 AM 42.8 °F 38.0 °F 28.4 °F 57% 30.54 in 10.0 mi NE 8.1 mph - N/A   Overcast
11:51 AM 44.1 °F 40.1 °F 28.9 °F 55% 30.50 in 10.0 mi NE 6.9 mph - N/A   Overcast
12:51 PM 46.0 °F 43.9 °F 30.0 °F 54% 30.45 in 10.0 mi Variable 4.6 mph - N/A   Overcast
1:51 PM 48.0 °F - 30.0 °F 50% 30.44 in 10.0 mi NW 4.6 mph - N/A   Overcast
2:51 PM 48.9 °F - 30.0 °F 48% 30.42 in 10.0 mi Calm Calm - N/A   Overcast
3:51 PM 48.9 °F - 28.9 °F 46% 30.39 in 10.0 mi Variable 4.6 mph - N/A   Overcast
4:51 PM 48.9 °F - 28.9 °F 46% 30.35 in 10.0 mi ENE 5.8 mph - N/A   Overcast
5:51 PM 48.0 °F - 28.9 °F 48% 30.33 in 10.0 mi SSE 3.5 mph - N/A   Overcast
6:51 PM 45.0 °F 39.3 °F 35.1 °F 68% 30.30 in 10.0 mi SSE 11.5 mph - N/A   Overcast
7:51 PM 43.0 °F 37.2 °F 34.0 °F 71% 30.32 in 10.0 mi South 10.4 mph - N/A   Overcast
8:51 PM 42.1 °F 37.7 °F 34.0 °F 73% 30.30 in 10.0 mi South 6.9 mph - N/A   Overcast
9:51 PM 41.0 °F 36.4 °F 34.0 °F 76% 30.30 in 10.0 mi SSW 6.9 mph - N/A   Overcast
10:51 PM 39.9 °F 34.5 °F 33.1 °F 77% 30.30 in 10.0 mi SSW 8.1 mph - N/A   Overcast
11:51 PM 39.2 °F 35.9 °F 33.8 °F 81% 30.26 in 10.0 mi SW 4.6 mph - N/A   Overcast